Starlink 1480

operational
NORAD ID: 45741 Int'l Des: 2020-038 Owner: SPXS Country: US Constellation: starlink
LEOCIRCULARSTARLINK_TYPE

关于 Starlink 1480

正在加载描述...

实时位置

正在加载3D地球...

即将过境

高度历史

Altitude vs Time

uPlot chart will show altitude changes over time

两行轨道根数

1 45741U 20038M 25257.41291347 .00002092 00000-0 15930-3 0 9990
2 45741 53.0544 307.9598 0001316 92.3089 267.8050 15.06401325289630
Epoch: Sep 14, 2025 • Age: 24 hours

当前状态

高度 566.5 km
速度 7.58 km/s
星下点 -52.87°S, 86.53°E
发射日期 Jun 13, 2020
运行时间 5.2 years
类型 internet

技术详情

分类 Payload
质量 260.00 kg
干质量 248.00 kg
总质量 260.00 kg
长度 0.20 m
直径 2.80 m
跨度 9.00 m
形状 Box + pan
制造商 SPXS
平台类型 Starlink
阶段状态 In Orbit
所有者/国家 SPXS/US

大型星座

Loading constellations...